[[{"header":{"parameterUnit":"m.s-1","parameterCategory":1,"la1":30.2991,"la2":30.254,"lo1":-89.0895,"lo2":-89.0444,"dy":0.0017,"dx":0.0017,"nx":28,"ny":28,"refTime":"2024-06-18T03:00:00:Z","depth":0,"parameterNumber":2,"parameterNumberName":"U-component_of_WINDS"},"data":[0,0,0,0,0,0,0,0,0,0,0,0,0,0,0,0,0,0,0,0,0,0,0,0,0,0,0,0,0,0,0,0,0,0,0,0,0,0,0,0,0,0,0,0,0,0,0,0,0,0,0,0,0,0,0,0,0,0,-9.5817,-9.5818,0,-9.5856,-9.5857,-9.5857,-9.5659,-9.5654,-9.5648,-9.5643,-9.568,-9.5686,-9.5693,0,0,0,0,0,0,0,0,0,0,0,0,0,-9.5567,-9.5573,-9.5817,-9.5818,-9.5818,-9.5856,-9.5857,-9.5857,-9.566,-9.5654,-9.5647,-9.564,-9.5678,-9.5686,-9.5693,0,0,0,0,0,0,0,0,0,0,0,0,0,-9.5648,-9.5575,-9.5817,-9.5724,-9.5717,-9.5856,-9.5857,-9.5857,-9.5662,-9.5653,-9.5645,-9.5637,-9.5676,-9.5685,-9.5694,-9.5924,0,0,-9.5723,-9.5727,0,0,0,0,0,0,0,0,-9.5644,-9.5658,-9.5738,-9.5731,-9.5722,-9.5744,-9.5782,-9.588,-9.5664,-9.5683,-9.5643,-9.5633,-9.5708,-9.5715,-9.5741,-9.5926,-9.5927,-9.5724,-9.573,-9.5734,-9.5736,0,0,0,0,0,0,0,-9.5639,-9.5655,-9.5832,-9.5739,-9.573,-9.568,-9.5682,-9.58,-9.5743,-9.568,-9.5666,-9.5674,-9.5702,-9.5732,-9.574,-9.5928,-9.5724,-9.5732,-9.5738,-9.5742,-9.6299,-9.6308,0,0,0,0,0,0,-9.5646,-9.5652,-9.5831,-9.5834,-9.5661,-9.5691,-9.5693,-9.5746,-9.5741,-9.5732,-9.5681,-9.5664,-9.572,-9.5729,-9.5741,-9.6005,-9.5734,-9.5743,-9.5748,-9.629,-9.6301,-9.6311,0,0,0,0,0,0,-9.5641,-9.5664,-9.5829,-9.5739,-9.5756,-9.5705,-9.5765,-9.5751,-9.578,-9.5741,-9.573,-9.5722,-9.5714,-9.5727,-9.5879,-9.6004,-9.5747,-9.5755,-9.6279,-9.6294,-9.6306,-9.654,0,0,0,0,0,0,-9.5635,-9.5663,-9.5751,-9.5742,-9.5762,-9.5969,-9.5773,-9.5758,-9.5797,-9.5776,-9.5777,-9.5768,-9.5708,-9.5866,-9.5889,-9.6012,-9.5763,-9.6268,-9.6286,-9.6302,-9.652,-9.6559,-9.6593,0,0,0,0,0,-9.5627,-9.5815,-9.5756,-9.5779,-9.587,-9.5977,-9.5988,-9.5915,-9.5809,-9.5895,-9.587,-9.5768,-9.5988,-9.5883,-9.5907,-9.6036,-9.6259,-9.6281,-9.6301,-9.6504,-9.6552,-9.6592,0,0,0,0,0,0,-9.5839,-9.5812,-9.5747,-9.5938,-9.5962,-9.5943,-9.605,-9.5968,-9.6021,-9.5999,-9.5906,-9.5908,-9.6075,-9.6071,-9.5955,-9.6256,-9.6105,-9.6131,-9.6251,-9.6297,-9.6332,-9.6328,-9.5771,0,0,0,0,0,-9.5908,-9.5998,-9.597,-9.6141,-9.6157,-9.6103,-9.6146,-9.6088,-9.6108,-9.6116,-9.6102,-9.6124,-9.6197,-9.6247,-9.6313,-9.652,-9.6515,-9.6621,-9.6657,-9.6687,-9.6709,-9.6815,-9.686,-9.6379,-9.6378,-9.6378,0,0,-9.6052,-9.6048,-9.6111,-9.6184,-9.6195,-9.6288,-9.6111,-9.6218,-9.6285,-9.6132,-9.6273,-9.6265,-9.6283,-9.6463,-9.6541,-9.6464,-9.6842,-9.6713,-9.6737,-9.6743,-9.6841,-9.6886,-9.6927,-9.6392,-9.639,-9.6388,0,0,-9.6359,-9.6369,-9.651,-9.6525,-9.6544,-9.6507,-9.6542,-9.6536,-9.6524,-9.6665,-9.6551,-9.663,-9.6759,-9.6776,-9.6801,-9.7117,-9.7024,-9.7141,-9.7329,-9.7433,-9.7471,-9.7504,-9.7612,-9.7653,-9.7164,-9.7165,-9.7166,0,-9.6535,-9.6672,-9.6593,-9.6707,-9.6741,-9.6608,-9.675,-9.6768,-9.6808,-9.6834,-9.6748,-9.6906,-9.691,-9.709,-9.7167,-9.7194,-9.7227,-9.7138,-9.7472,-9.7505,-9.7534,-9.7636,-9.7678,-9.7179,-9.7177,-9.7176,-9.7175,0,-9.6884,-9.6981,-9.7093,-9.7135,-9.7182,-9.731,-9.725,-9.7307,-9.7246,-9.7218,-9.7361,-9.7361,-9.7423,-9.7462,-9.7404,-9.7634,-9.7585,-9.7489,-9.7334,-9.7595,-9.7689,-9.7728,-9.7199,-9.7194,-9.7189,-9.7186,0,0,-9.7323,-9.7321,-9.7363,-9.7379,-9.7391,-9.7463,-9.7585,-9.7646,-9.7695,-9.7728,-9.7824,-9.7938,-9.7847,-9.7876,-9.7819,-9.7911,-9.8156,-9.7801,-9.78,-9.7863,-9.8405,-9.8474,-9.8521,-9.8097,-9.8104,-9.811,-9.8402,0,-9.7621,-9.7827,-9.7761,-9.7969,-9.8055,-9.7931,-9.8036,-9.8054,-9.8031,-9.81,-9.8074,-9.8154,-9.8031,-9.8047,-9.8133,-9.8108,-9.8262,-9.8087,-9.8182,-9.8187,-9.8177,-9.8571,-9.8645,-9.8921,-9.8438,-9.8445,-9.8449,0,-9.7995,-9.8042,-9.826,-9.8255,-9.8288,-9.8384,-9.8433,-9.8503,-9.852,-9.8496,-9.853,-9.8453,-9.8569,-9.8419,-9.8576,-9.8458,-9.8494,-9.8488,-9.8496,-9.8498,-9.833,-9.8579,-9.9007,-9.9047,-9.8507,-9.8503,-9.8498,0,-9.8288,-9.8407,-9.8551,-9.8569,-9.8569,-9.8638,-9.8641,-9.865,-9.869,-9.8734,-9.8759,-9.8816,-9.8847,-9.8892,-9.8831,-9.8728,-9.8997,-9.8842,-9.8977,-9.8979,-9.9035,-9.9032,-9.947,-9.9068,-9.9067,-9.9066,-9.9065,0,-9.8625,-9.8761,-9.8682,-9.877,-9.8919,-9.8841,-9.899,-9.8979,-9.8988,-9.907,-9.8968,-9.9047,-9.8965,-9.9037,-9.8991,-9.9126,-9.9142,-9.9124,-9.9109,-9.913,-9.9132,-9.9148,-9.9126,-9.9077,-9.9075,-9.9073,-9.9071,0,-9.8975,-9.8928,-9.9076,-9.9064,-9.9064,-9.9174,-9.9162,-9.9242,-9.9213,-9.9318,-9.9339,-9.9292,-9.9371,-9.9316,-9.9395,-9.9364,-9.954,-9.9501,-9.9534,-9.9522,-9.9658,-9.9645,-10.0119,-10.0176,-9.9742,-9.9746,-9.975,0,-9.919,-9.9292,-9.9291,-9.9339,-9.9348,-9.9428,-9.9469,-9.9397,-9.9443,-9.947,-9.9547,-9.9617,-9.9668,-9.98,-9.9772,-9.9832,-9.979,-9.9953,-9.9798,-9.9815,-9.9787,-9.9779,-9.9787,-9.9982,-9.9987,-9.9991,-9.9995,0,-9.9576,-9.9547,-9.961,-9.9666,-9.9718,-9.9758,-9.9789,-9.9834,-9.9761,-9.9819,-9.9898,-9.9939,-10.0019,-10.0089,-10.0138,-10.0138,-10.0054,-10.0045,-10.0078,-10.0098,-10.0111,-10.0101,-9.9614,-10.0033,-10.0029,-10.0026,-10.0024,-10.0023,-9.9861,-9.9945,-9.9957,-10.003,-10.0046,-10.0078,-10.0152,-10.0132,-10.0197,-10.0257,-10.0211,-10.0305,-10.0318,-10.0375,-10.0387,-10.0458,-10.0391,-10.0441,-10.0453,-10.0465,-10.0482,-10.0105,-10.0468,-10.0466,-10.0465,-10.0464,-10.0464,0,-10.0237,-10.0239,-10.0308,-10.0354,-10.0412,-10.033,-10.0361,-10.0413,-10.0497,-10.0518,-10.0571,-10.0661,-10.0728,-10.0707,-10.0766,-10.0827,-10.079,-10.0845,-10.0837,-10.0838,-10.0541,-10.0504,-10.0874,-10.0874,-10.0874,-10.0874,-10.0874,-10.0874,-10.0439,-10.0575,-10.0549,-10.0691,-10.0691,-10.0783,-10.0807,-10.0835,-10.085,-10.0955,-10.1011,-10.0997,-10.1,-10.1058,-10.1116,-10.1108,-10.1132,-10.1201,-10.1178,-10.09,-10.0859,-10.082,-10.0785,-10.1208,-10.1208,-10.1468,-10.1471,-10.1472]},{"header":{"parameterUnit":"m.s-1","parameterCategory":1,"la1":30.2991,"la2":30.254,"lo1":-89.0895,"lo2":-89.0444,"dy":0.0017,"dx":0.0017,"nx":28,"ny":28,"refTime":"2024-06-18T03:00:00:Z","depth":0,"parameterNumber":3,"parameterNumberName":"V-component_of_WINDS"},"data":[0,0,0,0,0,0,0,0,0,0,0,0,0,0,0,0,0,0,0,0,0,0,0,0,0,0,0,0,0,0,0,0,0,0,0,0,0,0,0,0,0,0,0,0,0,0,0,0,0,0,0,0,0,0,0,0,0,0,1.3861,1.3862,0,1.3932,1.3933,1.3933,1.3959,1.3959,1.3959,1.3959,1.4028,1.403,1.4032,0,0,0,0,0,0,0,0,0,0,0,0,0,1.3748,1.375,1.3861,1.3862,1.3863,1.3932,1.3933,1.3934,1.3959,1.3959,1.3959,1.3959,1.4028,1.403,1.4033,0,0,0,0,0,0,0,0,0,0,0,0,0,1.3805,1.375,1.3861,1.3884,1.3887,1.3932,1.3933,1.3934,1.3959,1.3959,1.3959,1.3958,1.4027,1.403,1.4033,1.4059,0,0,1.4042,1.4044,0,0,0,0,0,0,0,0,1.3802,1.3809,1.388,1.3883,1.3886,1.3937,1.3918,1.3976,1.396,1.3932,1.3959,1.3958,1.3998,1.4003,1.4017,1.4062,1.4065,1.4043,1.4045,1.4046,1.4047,0,0,0,0,0,0,0,1.3798,1.3807,1.3889,1.3881,1.3884,1.3891,1.3899,1.3929,1.3966,1.3934,1.3936,1.3944,1.3999,1.4014,1.4019,1.4066,1.4043,1.4045,1.4047,1.4048,1.4138,1.4138,0,0,0,0,0,0,1.379,1.3803,1.3887,1.3891,1.3842,1.3893,1.3902,1.392,1.3966,1.3972,1.3945,1.3945,1.4009,1.4015,1.4022,1.4056,1.4046,1.4049,1.405,1.4137,1.4138,1.4138,0,0,0,0,0,0,1.3788,1.3798,1.3884,1.3848,1.3859,1.3895,1.3916,1.3922,1.3937,1.3973,1.398,1.3953,1.4009,1.4017,1.405,1.4059,1.405,1.4053,1.4137,1.4137,1.4138,1.4124,0,0,0,0,0,0,1.3784,1.3797,1.3807,1.3848,1.3861,1.3911,1.3917,1.3924,1.3943,1.3944,1.3983,1.3989,1.4009,1.4045,1.4053,1.4063,1.4055,1.4136,1.4137,1.4138,1.4124,1.4125,1.4125,0,0,0,0,0,1.378,1.3799,1.3807,1.3817,1.3875,1.3912,1.3919,1.3943,1.3943,1.3954,1.3978,1.3988,1.4057,1.4048,1.4057,1.4068,1.4136,1.4137,1.4138,1.4124,1.4124,1.4125,0,0,0,0,0,0,1.3756,1.3805,1.3814,1.3847,1.3875,1.3916,1.393,1.3942,1.397,1.3971,1.3998,1.4007,1.4037,1.4056,1.4046,1.4097,1.4097,1.41,1.4083,1.4084,1.4084,1.4079,1.4058,0,0,0,0,0,1.3755,1.3782,1.3822,1.3847,1.3861,1.3893,1.391,1.3926,1.3956,1.3968,1.3994,1.4022,1.4051,1.4068,1.4096,1.4127,1.4137,1.4139,1.414,1.414,1.4142,1.4161,1.4163,1.4142,1.4142,1.4142,0,0,1.3753,1.3782,1.3797,1.3844,1.3867,1.3894,1.3903,1.393,1.3951,1.3972,1.4005,1.4025,1.4059,1.4091,1.4107,1.4108,1.415,1.4141,1.4141,1.4143,1.4163,1.4165,1.4166,1.4143,1.4143,1.4143,0,0,1.3762,1.3786,1.3811,1.3835,1.3872,1.3893,1.3899,1.3939,1.3954,1.3988,1.4005,1.4029,1.4076,1.41,1.4118,1.4139,1.415,1.4147,1.4149,1.4167,1.4169,1.417,1.4178,1.4181,1.4149,1.4149,1.4149,0,1.3753,1.3795,1.3821,1.3849,1.3869,1.3891,1.3916,1.3938,1.3982,1.3995,1.3996,1.4058,1.4081,1.4121,1.4126,1.414,1.4147,1.4142,1.4166,1.4168,1.417,1.4178,1.4181,1.4149,1.4149,1.4149,1.4149,0,1.3783,1.3812,1.3827,1.387,1.3892,1.3918,1.3949,1.3968,1.3983,1.4004,1.4039,1.4069,1.4104,1.4115,1.4128,1.4156,1.4156,1.4161,1.4162,1.4171,1.4179,1.4182,1.4148,1.4148,1.4148,1.4148,0,0,1.3777,1.3837,1.3842,1.3863,1.3906,1.3928,1.3956,1.3991,1.4007,1.4037,1.4061,1.4102,1.4108,1.4129,1.4146,1.4162,1.4178,1.4166,1.4167,1.4167,1.4211,1.4206,1.4209,1.4185,1.4186,1.4187,1.4208,0,1.3792,1.3843,1.3869,1.3909,1.3936,1.3959,1.3983,1.4012,1.4033,1.4059,1.4083,1.4112,1.4117,1.413,1.4147,1.4172,1.4187,1.4171,1.4208,1.4209,1.4198,1.4213,1.4208,1.4227,1.4211,1.4212,1.4212,0,1.3816,1.3847,1.389,1.3932,1.3944,1.3965,1.4001,1.4026,1.406,1.4074,1.4099,1.4116,1.4146,1.4145,1.4187,1.4176,1.4193,1.4207,1.4209,1.4212,1.4211,1.4218,1.4233,1.4236,1.4217,1.4217,1.4216,0,1.3808,1.3861,1.3894,1.3911,1.396,1.3975,1.3996,1.4029,1.405,1.4081,1.4094,1.4128,1.4146,1.4172,1.4198,1.4195,1.4238,1.4239,1.425,1.425,1.4258,1.4257,1.4276,1.4269,1.4269,1.4269,1.4269,0,1.3822,1.3847,1.3891,1.3911,1.3941,1.397,1.3999,1.4021,1.4052,1.4077,1.4098,1.4121,1.4154,1.4181,1.4202,1.4234,1.4242,1.4254,1.4259,1.4252,1.4251,1.4263,1.4262,1.4269,1.4269,1.4269,1.4269,0,1.3818,1.3848,1.3886,1.393,1.3942,1.3962,1.4,1.402,1.4044,1.4075,1.4084,1.412,1.4154,1.4183,1.4226,1.424,1.4273,1.4279,1.4262,1.4264,1.4275,1.4273,1.4303,1.4308,1.4297,1.4297,1.4297,0,1.3824,1.3845,1.3892,1.3911,1.3932,1.3962,1.3984,1.4014,1.4036,1.4077,1.4093,1.4128,1.4157,1.4209,1.4239,1.4273,1.428,1.4288,1.4285,1.4278,1.4281,1.4279,1.4282,1.4288,1.4288,1.4288,1.4288,0,1.3833,1.3848,1.3878,1.3915,1.394,1.397,1.4,1.4015,1.4051,1.4074,1.4109,1.4132,1.4178,1.4212,1.425,1.4271,1.4286,1.4289,1.4294,1.4286,1.4276,1.4282,1.4262,1.4288,1.4288,1.4288,1.4288,1.4288,1.3835,1.3855,1.3892,1.3925,1.3952,1.398,1.4002,1.4029,1.4059,1.41,1.4116,1.4152,1.4186,1.4238,1.426,1.4289,1.4291,1.4297,1.4299,1.43,1.4299,1.4272,1.4295,1.4296,1.4296,1.4296,1.4296,0,1.3845,1.3871,1.3901,1.3944,1.3971,1.3984,1.4019,1.404,1.4072,1.4104,1.4133,1.4174,1.4208,1.4242,1.4278,1.4294,1.4302,1.4303,1.4302,1.4307,1.4295,1.4287,1.4296,1.4296,1.4296,1.4296,1.4296,1.4296,1.3853,1.3888,1.3907,1.3956,1.3981,1.4017,1.4036,1.4062,1.4088,1.4133,1.4163,1.4185,1.4217,1.4256,1.4289,1.4298,1.431,1.4309,1.432,1.4308,1.4307,1.4307,1.43,1.4311,1.4311,1.4329,1.4329,1.433]}]]